This is the latest recevied weather packets stored in our database for station/object OE-11343. If no packets are shown the sender has not sent any weather packets the latest 10 day(s).
| Time | Temp. | Humidity | Pressure | Rain* | Wind** | Luminosity | Snow |
|---|---|---|---|---|---|---|---|
| 1787964098 | 2.78° C | 100% | 713.5 hPa | - | - | 0 W/m² | - |
| 1787963725 | 3.33° C | 100% | 713.7 hPa | - | - | 0 W/m² | - |
| 1787963124 | 4.44° C | 100% | 714 hPa | - | - | 0 W/m² | - |
| 1787962297 | 5° C | 100% | 713.9 hPa | - | - | 0 W/m² | - |
| 1787961924 | 4.44° C | 100% | 714 hPa | - | - | 0 W/m² | - |
| 1787961325 | 4.44° C | 96% | 714 hPa | - | - | 0 W/m² | - |
| 1787960498 | 4.44° C | 99% | 714 hPa | - | - | 0 W/m² | - |
| 1787960125 | 5° C | 97% | 714 hPa | - | - | 0 W/m² | - |
| 1787959524 | 5° C | 91% | 714.2 hPa | - | - | 0 W/m² | - |
| 1787958925 | 5° C | 89% | 714.3 hPa | - | - | 0 W/m² | - |
| 1787958325 | 5.56° C | 86% | 714.6 hPa | - | - | 0 W/m² | - |
| 1787957725 | 5.56° C | 80% | 714.8 hPa | - | - | 0 W/m² | - |
| 1787956898 | 5.56° C | 82% | 714.8 hPa | - | - | 0 W/m² | - |
| 1787956525 | 5.56° C | 83% | 714.9 hPa | - | - | 0 W/m² | - |
| 1787955925 | 5.56° C | 85% | 715 hPa | - | - | 0 W/m² | - |
| 1787955098 | 5.56° C | 86% | 714.9 hPa | - | - | 0 W/m² | - |
| 1787954724 | 5.56° C | 89% | 715 hPa | - | - | 0 W/m² | - |
| 1787954125 | 5.56° C | 88% | 715.2 hPa | - | - | 0 W/m² | - |
| 1787953298 | 5.56° C | 90% | 715 hPa | - | - | 0 W/m² | - |
| 1787952925 | 6.11° C | 82% | 715.4 hPa | - | - | 0 W/m² | - |
| 1787952325 | 6.67° C | 79% | 715.1 hPa | - | - | 0 W/m² | - |
| 1787951498 | 6.67° C | 79% | 714.9 hPa | - | - | 0 W/m² | - |
| 1787951125 | 6.67° C | 78% | 714.8 hPa | - | - | 0 W/m² | - |
| 1787950525 | 6.67° C | 79% | 714.9 hPa | - | - | 0 W/m² | - |
| 1787949699 | 6.67° C | 78% | 714.6 hPa | - | - | 0 W/m² | - |
* Rain since midnight (hover to see other rain measurements)
** Current wind speed in m/s (hover to see current wind gust speed)